Location: Buckeye Ditch
(40.9104°N, 122.9517°W)
Time: 22:42:34
(UTC+00:00)

Transit 2A - Pass Details

Date: 23 May 2025
Orbit: 599 x 947 km, 66.7° (Epoch: 20 June)

Event Time Altitude Azimuth Distance (km) Brightness Sun altitude
Rises 23:52:57 0° 320° (NW) 2,912 9.4 38.8°
Reaches altitude 10° 23:55:19 10° 311° (NW) 2,035 8.9 38.4°
Maximum altitude 23:59:26 34° 247° (WSW) 1,113 8.8 37.6°
Drops below altitude 10° 00:03:51 10° 184° (S) 2,189 8.6 36.8°
Sets 00:06:29 0° 175° (S) 3,167 9.2 36.3°
